Timeline UpdatesTrip UpdatesNews PostsPvt PostsTravel TipsAdmin PostsConv PostsFollowed PostsChat RequestsBlog PostsPNR Posts

Disclaimer
Search
 
 
Thu Jul 31, 2014 14:58:41 ISTHomeTrainsΣChainsAtlasPNRForumGalleryNewsFAQTripsMembersLoginFeedback
No Recent News for this Train
Other Trains in the News **new
Latest...
Cancelled on 20/5/14.
Mon May 19, 2014 (06:12PM)
⇐ Return Journey: Train# 13008

13007/Udyan Abha Toofan Express

May 08 2014 (6:16PM)
Change Departure Station:
Change Arrival Station:
Post a Train Travel TipPost a Train Travel Tip **new
Post a Comment/Question/Picture/VideoPost a Comment/Question/Picture/Video
Inaugural Run
Wed Jan 01, 1930
Pantry/Catering
✕ NO Pantry Car
✕ NO Catering
Loco/Rake Reversals
AGC/Agra Cantt. (6);
RSA - Rake Sharing
Rake/Coach Composition
LOCO-SLR-GEN-GEN-B1-S5-S4-S3-S2-S1-GEN-GEN-SLR-HCPV-HCPV.
Loco
HWH-NDLS: HWH WAP-4 NDLS-SGNR: TKD WDM-3A
News    PNR    Forum    Time-Table    Availability    Fare Chart    Map    Arr/Dep History    Trips    Gallery    ΣChains    X/O    Timeline    
Travel Time: 33h 27m    87 halts    Distance: 1545 km    Avg Speed: 46 km/hr
Type: Mail/Express
Zone: ER/Eastern
Departs @ 09:35 (Avg 48m late)
Platform# 11
SMTWTFS
Kolkata Howrah Junction/HWH 
Arrives @ 19:02 +1 night (Avg 6h 2m late)
Platform# ???
SMTWTFS
Okhla/OKA 

87 halts. 291 intermediate Stations between Kolkata Howrah Junction and Okhla

Show ALL intermediate Stations  Show Old Time-Table

#CodeStation NameX/OArrivesAvgDepartsAvgHaltPFDay#KmSpeedElevZoneAddress
1HWH»Kolkata Howrah Junction (23)»  -09:35+481110.04210mERHowrah 711101, West Bengal
2BDCBandel Junction (7)X  10:32+5010:37+525m--139.67014mERdist - HOOGHLY, West Bengal
3BWNBarddhaman Junction (8)X  11:35+5811:40+585m--1106.88234mERDist - Barddhaman, West Bengal
4PANPanagarh (4)  12:15+5912:16+1:011m--1154.85570mERKaksa, West Bengal
5DGRDurgapur (5)X  12:33+5712:35+572m31170.47971mERDurgapur, West Bengal
6UDLAndal Junction (6)X  12:48+1:0112:50+1:012m--1187.46286mERAndal, West Bengal
7RNGRaniGanj (4)X  12:57+1:0312:58+1:051m--1194.73492mERRaniganj, West Bengal
8ASNAsansol Junction (7)X  13:30+5113:35+565m41212.840113mERDist - bardhaman, West Bengal
9STNSitarampur Junction (5)  13:48+5913:50+1:002m--1221.658139mERG T Rd Before Asansol, West Bengal
10CRJChittaranjan (3)X  14:07+1:0214:08+1:031m31237.966182mERMihijam, Jharkhand
11JMTJamtara (2)X  14:21+1:0314:22+1:041m11252.263201mERJamtara, Jharkhand
12VDSVidyasagar (2)  14:39+1:0514:40+1:071m--1270.166250mERJamtara, Jharkhand
13MDPMadhupur Junction (4)  15:02+1:0715:12+1:0410m21294.367254mER06432-224478, Jharkhand
14JSMEJasidih Junction (5)  15:38+1:0715:43+1:075m--1323.480271mERJasidih, Jharkhand
15STLSimultala (2)XO  16:02+1:2216:03+1:231m--1348.830247mERSimultala, Bihar
16JAJJhajha (4)X  16:40+5816:45+1:005m31367.562143mECRJhajha, Bihar
17GHRGidhaur (2)X  16:56+1:0216:57+1:051m--1378.973106mECRState Highway 18, Bihar
18JMUJamui (3)X  17:09+1:1017:10+1:141m--1393.59481mECRState Highway 72, Bihar
19MNPMananpur (2)  17:23+1:1617:24+1:201m--1413.91757mECRState Highway 18, Bihar
20BSQPBansipur  17:33+1:1917:34+1:221m--1416.42653mECRKiul, Bihar
21KIULKiul Junction (5)X  17:44+1:2217:48+1:224m31420.81253mECRDist. Lakhisarai, Bihar
22LKRLuckeesarai Junction (2)X  17:55+1:2017:56+1:211m--1422.14852mECRLakhisarai, Bihar
23MKBMankatha  18:03+1:2018:04+1:221m--1427.73547mECRNational Highway 80, Bihar
24DMRXDumri Halt (1)  18:13+3818:14+381m11433.05149mECRNational Highway 80, Bihar
25BRYABarhiya (3)  18:19+1:2218:20+1:241m--1437.25647mECRBarahiya, Bihar
26HTZHathidah Junction (2)X  18:30+1:2418:31+1:251m21446.65650mECRMusahari, Bihar
27MKAMokama Junction (3)X  18:40+1:2818:44+1:294m--1455.07248mECRPatna, Bihar
28MORMorX  18:50+1:3118:51+1:311m--1462.25546mECRMor, Bihar
29PHKPunarakh  19:00+1:3019:01+1:321m--1470.56251mECRPunarakh, Bihar
30BARHBarh (3)X  19:11+1:3119:12+1:341m--1480.96949mECRBarh, Bihar
31ATLAthmal Gola (2)XO  19:20+1:3419:21+1:351m--1490.12252mECRPatna, Bihar
32BKPBakhtiyarpur Junction (5)X  19:46+1:1919:48+1:222m--1499.17951mECRPatna, Bihar
33KOOKhusropur (2)  19:59+1:2420:00+1:291m--1513.75652mECRPatna, Bihar
34FUTFatwa (6)  20:09+1:3120:10+1:361m--1522.17353mECRPatna, Bihar
35PNCPatna Saheb (3)X  20:20+1:4420:21+1:491m--1534.42659mECRPatna, Bihar
36GZHGulzarbagh (3)X  20:28+1:4620:29+1:531m--1537.42055mECRPatna, Bihar
37PNBEPatna Junction (10)X  20:50+1:5021:00+1:5610m41544.23857mECRPatna 800001, Bihar
38DNRDanapur (5)XO  21:15+2:0521:25+2:0710m--1553.66058mECRKhagaul, Bihar
39NEONeora (2)X  21:31+2:0821:32+2:131m--1559.76161mECRNational Highway 98, Bihar
40SDESadisopur (2)  21:39+1:2521:40+1:261m--1566.85164mECRSadisopur, Bihar
41BTABihta (2)X  21:45+2:1621:46+2:191m--1571.04862mECRDistt: Patna, Bihar
42KWRKoelwar (2)O  21:57+1:2821:58+1:281m--1579.73165mECRNational Highway 30, Bihar
43KUAKulharia (2)  22:05+2:1522:06+2:161m--1583.35461mECRChandi Sahar Rd, Bihar
44ARAAra Junction (3)  22:17+2:1622:22+2:185m--1593.29263mECRarrah( 06182-233411), Bihar
45BEABihiya (3)  22:36+2:2122:37+2:261m--1614.65167mECRBehea, Bihar
46BYNBanahi (2)  22:44+2:2522:45+2:251m--1620.55967mECRBanahi, Bihar
47RPRRaghunathpur (4)  22:54+2:2422:55+2:281m--1629.47469mECRRaghunathpur, Bihar
48DUREDumraon (3)  23:08+2:3023:09+2:311m--1645.36170mECRDumraon, Bihar
49BXRBuxar (3)X  23:25+2:3123:30+2:305m--1661.78067mECRBuxar, Bihar
50DLNDildarnagar Junction (2)  23:57+2:3623:59+2:362m--1697.95872mECRDildarnagar, Uttar Pradesh
51ZNAZamania (2)XO  00:13+2:3500:14+2:361m--2711.42077mECRGhazipur, Uttar Pradesh
52MGSMughal Sarai Junction (8)XO  02:25+1:1202:40+1:1415m--2755.65583mECRMughalsarai 232101, Uttar Pradesh
53CARChunar Junction (5)X  03:15+1:4903:16+1:561m22787.56185mNCRChunar Junction, Uttar Pradesh
54MZPMirzapur (3)O  03:47+2:2003:48+2:241m--2818.84988mNCRMirzapur, Uttar Pradesh
55BDLVindhyachal (3)  03:57+2:2203:58+2:241m--2826.17488mNCRMirzapur, Uttar Pradesh
56ALDAllahabad Junction (10)X  05:05+3:2305:15+3:2410m22908.377100mNCRAllahabad 211003, Uttar Pradesh
57BREBharwariX  05:44+3:3905:45+3:411m--2945.475108mNCRBharwari, Uttar Pradesh
58SROSirathu (2)X  06:01+3:4406:02+3:471m12965.571109mNCRSirathu, Uttar Pradesh
59KGAKhaga (3)  06:23+3:5106:24+3:551m--2990.352114mNCRFatehpur, Uttar Pradesh
60FTPFatehpur (3)  07:04+3:4907:05+3:551m--21025.085120mNCRFatehpur, Uttar Pradesh
61BKOBindki Road  07:27+4:0507:28+4:101m--21056.349124mNCRFatehpur, Uttar Pradesh
62CNBKanpur Central (10)O  08:25+4:2408:40+4:2815m221102.625128mNCRKANPUR-208 001, Uttar Pradesh
63GOYGovindpuri Junction (2)  08:49+4:3708:50+4:381m--21106.451129mNCRKANPUR-208 006, Uttar Pradesh
64PNKPanki (3)  08:59+4:4509:00+4:461m--21114.186129mNCRKANPUR-208 020, Uttar Pradesh
65RURARura (4)  09:23+4:5409:24+4:581m--21146.971137mNCRJhinjhak, Uttar Pradesh
66JJKJhinjhak (3)  09:40+4:5909:41+5:021m321165.974140mNCRAuraiya, Uttar Pradesh
67PHDPhaphund (4)X  09:57+5:0609:58+5:091m--21185.767146mNCRdist. Auraiya, Uttar Pradesh
68ULDAchalda (3)X  10:13+5:0910:14+5:121m--21202.573147mNCRDist. Auraiya(05688-1072), Uttar Pradesh
69BNTBharthana (3)X  10:30+5:1310:31+5:141m--21222.052147mNCRBharthana, Uttar Pradesh
70ETWEtawah (5)  10:54+5:2010:55+5:231m221241.980154mNCRDistt. Etawah, Uttar Pradesh
71JGRJaswantnagar (2)X  11:07+5:2511:08+5:271m--21257.969154mNCRJaswantnagar, Uttar Pradesh
72BDNBhadan (2)  11:25+5:2811:26+5:311m--21277.352160mNCRFirozabad, Uttar Pradesh
73SKBShikohabad Junction (4)X  11:49+5:2811:50+5:311m321297.338166mNCRDistrict Firozabad, Uttar Pradesh
74FZDFirozabad (4)  12:21+5:2012:22+5:251m321317.223164mNCRFirozabad, Uttar Pradesh
75TDLTundla Junction (5)  13:05+5:1213:15+5:1110m221333.721167mNCRDistt.Firozabad, Uttar Pradesh
76AFAgra Fort (3)  14:20+5:0014:25+5:255m221356.714170mNCRRakabganj, Uttar Pradesh
77IDHIdgah Agra Junction (3)  14:34+5:2714:35+5:541m--21358.85168mNCRAgra, Uttar Pradesh
78AGCAgra Cantt. (6)XO15:00+5:3915:20+5:5720m321361.013174mNCRAgra, Uttar Pradesh
79RKMRaja Ki Mandi (4)  15:38+5:5615:39+5:571m121365.065170mNCRAgra, Uttar Pradesh
80MTJMathura Junction (10)  16:25+5:5416:33+5:528m221414.772179mNCRMathura, Uttar Pradesh
81CHJChata (4)X  16:59+5:5417:00+5:561m--21445.851185mNCRChhata, Uttar Pradesh
82KSVKosi Kalan (3)X  17:12+5:5417:13+5:561m121456.155189mNCRKosi Kalan, Uttar Pradesh
83PWLPalwal (8)X  17:59+5:4618:00+5:481m--21498.656200mNRPalwal, Haryana
84ASTAsaoti (5)  18:12+5:5318:13+5:541m321509.959203mNRAsaoti, Haryana
85BVHBallabgarh (5)  18:23+5:5518:24+5:551m--21519.850203mNRFaridabad, Haryana
86FDNFaridabad New Town (3)X  18:29+5:5918:30+5:591m--21523.947204mNRFaridabad, Haryana
87FDBFaridabad (4)  18:35+6:0118:36+6:021m221527.848206mNRold Faridabad, Haryana
88TKDTuglakabad (4)X  18:50+6:0118:51+6:021m--21538.933213mNRNear Tughlakabad Metro Station, Delhi NCT
89OKA•Okhla (4)•  19:02+6:0219:03+6:021m--21544.918221mNRIshwar Nagar Mathura Road, Delhi NCT
90NZMDelhi Hazrat Nizamuddin (7)X  19:15+6:0219:17+6:022m321548.648209mNRNizamuddin East/Sarai KaleKhan Bus Terminal, Delhi NCT
91TKJTilak Bridge (4)X  19:23+6:0919:24+6:081m--21553.49214mNRNew Delhi, Delhi NCT
92NDLSNew Delhi (16)X  19:40+6:0320:10+6:0430m221555.814215mNRNew Delhi, Delhi NCT
93DKZDelhi KishanGanj (2)  20:27+6:0620:28+6:071m--21559.732220mNRSarai Rohilla, Delhi NCT
94SSBShakur BastiX  20:41+6:0420:42+6:041m--21566.745216mNRPitampura, Delhi NCT
95NNONangloiX  20:52+6:0920:53+6:091m--21574.158219mNRJJ Colony No 1, Delhi NCT
96BGZBahadurgarh  21:06+6:0721:07+6:081m--21586.672220mNRBahadurgarh, Haryana
97SPZSamplaX  21:22+6:1321:23+6:151m--21604.650222mNRSampla, Haryana
98ROKRohtak Junction (3)  21:50+6:1121:55+6:095m--21626.967220mNRRohtak, Haryana
99JNAJulana  22:23+5:4922:24+5:501m--21658.350226mNRJulana, Haryana
100JINDJind Junction (3)  22:55+6:0423:00+6:035m--21684.070222mNR126102., Haryana
101UCAUchana  23:16+5:5623:17+5:581m--21702.765225mNRDistrict Jind, Haryana
102NRWNarwana Junction (4)  23:31+6:0723:32+6:081m--21717.973235mNRWay to Narwana, Haryana
103TUNTohana (2)  23:53+6:0923:54+6:101m--21743.335232mNRTohana, Haryana
104JHLJakhal Junction  00:15+6:1200:25+6:0310m--31755.643225mNRJakhal, Haryana
105BLZBudhladaX  01:06+5:5501:07+5:561m--31785.248223mNRBudhlada, Punjab
106MSZMansa  01:27+5:4801:28+5:501m--31801.349222mNRMansa, Punjab
107MAURMaur  01:51+5:4001:52+5:401m--31820.026220mNRMaur Mandi, Punjab
108BTIBathinda Junction (6)XO  03:15+5:2404:05+5:0650m231855.573208mNRBathinda, Punjab
109GDBGiddarbaha  04:28+5:1404:29+5:221m--31883.357200mNRGiddarbaha, Punjab
110MOTMalout (1)  04:46+5:2204:47+5:231m131899.544194mNRMalaut, Punjab
111ABSAbohar  05:27+5:1205:28+5:141m--31929.035186mNRAbohar, Punjab
112SGNRShri Ganganagar  07:00+4:47-331982.1-178mNWRSri Ganganagar, Rajasthan
Scroll to Top
Scroll to Bottom